Temp
16 17 17 17 17 17 17 18 18 18 19 19 20 20 20 21 21 20 21 20 21 21 21 21 20 20 20 20 20 20 15 15 16 17 16 17 15 15 14 13 12 12 12 13 10
16 16 17 17 17 17 17 18 18 18 19 19 20 20 21 21 20 20 20 21 21 21 20 20 20 21 21 21 20 19 14 17 16 17 15 16 16 15 13 12 9 10 11 10 10
16 16 16 17 17 17 18 18 18 19 19 19 20 20 21 21 20 20 21 21 21 20 20 20 21 21 21 20 20 18 15 16 16 17 17 16 15 15 13 11 12 11 10 10 10
16 16 17 17 17 17 18 18 18 19 19 19 20 20 20 20 19 20 21 21 21 20 21 21 21 21 20 18 20 16 16 16 16 16 17 16 16 15 14 13 14 13 12 10 10
16 16 16 17 17 17 18 18 18 19 19 19 20 20 20 20 19 20 20 21 21 20 20 20 21 21 19 19 19 15 16 15 15 16 16 16 14 14 13 13 12 12 11 10 10
16 16 16 17 17 17 18 18 19 19 19 20 20 20 20 20 19 20 20 21 21 20 20 20 21 21 19 18 17 17 16 15 15 15 15 15 14 15 12 12 11 11 10 10 10
15 16 16 17 17 18 18 18 19 19 19 20 20 20 20 20 19 20 20 20 20 20 20 20 20 21 20 17 18 17 14 15 15 15 14 15 13 12 13 12 11 11 10 10 10
15 16 16 17 17 18 18 18 19 19 19 20 20 20 20 19 19 19 19 20 20 20 20 20 20 20 19 18 17 16 15 14 14 15 14 14 12 13 13 12 11 11 10 10 10
15 16 16 17 17 18 18 19 19 19 19 20 20 20 19 19 19 19 19 19 19 20 20 20 19 18 17 15 14 15 14 16 15 15 13 13 13 11 12 12 11 11 11 11 10
15 16 16 17 18 18 18 19 19 19 19 19 19 19 19 19 19 19 19 19 19 19 19 19 19 15 13 13 15 17 17 17 15 14 13 12 11 11 12 12 12 11 11 11 11
14 15 16 17 18 18 18 19 19 19 19 19 20 20 19 19 19 19 19 19 19 19 18 19 15 16 17 18 18 18 18 16 15 15 14 12 11 12 12 12 12 12 12 12 11
14 15 16 17 17 18 18 18 18 17 18 19 20 20 20 19 19 19 19 19 19 18 18 17 17 18 18 18 18 18 18 16 16 15 14 13 12 12 11 11 13 13 13 13 12
14 15 16 17 17 17 17 18 18 18 17 19 19 19 19 19 19 18 19 19 19 18 18 17 17 18 18 18 18 17 17 16 16 15 14 13 12 14 12 12 12 13 13 13 13
14 14 16 17 17 16 17 17 18 18 14 18 18 19 19 19 18 18 19 19 19 19 18 17 17 18 17 17 17 16 15 16 16 13 14 14 13 13 12 10 10 13 13 13 13
14 15 15 16 16 16 16 17 17 18 16 18 18 18 19 19 18 18 18 18 17 18 17 17 16 17 17 16 16 16 15 15 15 14 13 14 12 11 13 12 9 11 13 14 13
14 14 14 16 16 16 16 17 18 15 17 18 18 18 18 19 18 17 18 18 18 18 17 16 16 15 15 15 15 15 14 14 13 11 12 14 14 13 12 13 13 12 14 14 13
14 14 14 15 16 16 17 17 14 15 19 17 17 18 17 17 17 17 17 16 15 16 15 16 15 14 15 15 14 14 12 12 15 12 14 16 14 14 15 15 14 13 15 15 14
14 14 14 15 16 16 17 14 16 19 19 19 19 18 17 18 18 17 17 15 15 17 15 14 15 14 15 14 14 14 13 11 17 14 14 14 13 16 15 15 17 18 18 15 14
13 14 14 15 15 16 16 13 15 19 19 18 19 18 18 19 19 18 15 15 17 16 16 16 15 13 13 13 13 15 13 14 13 13 13 12 15 15 14 14 14 15 15 15 14
13 13 13 15 15 16 13 13 18 19 20 19 17 17 17 17 17 16 16 18 17 16 17 17 16 13 12 13 13 13 12 13 10 14 15 13 15 15 15 12 11 11 14 14 14
13 13 14 14 15 15 11 13 18 19 20 19 18 19 20 18 16 17 18 17 17 15 16 16 15 13 13 11 12 11 12 12 11 10 11 12 14 14 16 14 12 12 15 15 14
12 11 14 14 14 13 12 17 19 18 18 18 18 18 19 19 17 19 19 16 17 16 15 16 13 13 13 12 12 13 13 11 7 14 9 6 11 14 18 16 17 18 19 18 16
13 14 13 13 11 11 14 17 17 17 17 16 17 18 19 19 18 18 15 14 15 15 15 15 13 12 14 13 12 12 12 13 10 7 10 7 12 15 16 17 18 18 19 19 18
12 10 12 13 13 13 13 15 16 17 17 17 17 18 18 17 17 18 15 13 14 14 14 14 12 13 13 15 13 13 12 12 11 5 8 8 13 17 15 13 15 17 18 18 18
11 11 13 8 10 12 13 14 15 15 16 17 16 16 16 15 16 15 14 12 12 13 13 12 12 14 14 15 14 14 14 11 9 11 11 16 12 15 14 13 16 16 17 16 17
11 12 12 12 13 11 11 12 14 15 14 14 14 16 15 14 15 17 15 13 14 11 11 11 12 15 15 15 14 13 12 11 11 12 10 11 12 15 16 16 15 15 14 14 16
10 10 12 11 10 10 10 12 13 15 16 16 16 14 14 14 16 16 17 17 16 11 9 10 10 11 11 14 14 12 12 12 12 10 12 11 14 14 13 14 14 14 14 14 14
Height
1553 1552 1552 1552 1552 1552 1552 1552 1552 1552 1552 1553 1553 1553 1553 1553 1553 1554 1554 1555 1554 1554 1554 1555 1555 1555 1556 1555 1555 1555 1564 1571 1568 1565 1567 1566 1567 1571 1574 1574 1576 1578 1579 1581 1586
1553 1553 1552 1552 1552 1552 1552 1552 1552 1552 1552 1552 1552 1552 1552 1552 1553 1554 1555 1553 1553 1553 1554 1555 1555 1555 1556 1556 1556 1557 1569 1567 1566 1564 1565 1566 1567 1570 1574 1575 1581 1580 1581 1584 1587
1554 1554 1553 1552 1552 1552 1552 1552 1552 1552 1552 1552 1552 1552 1551 1552 1553 1554 1553 1553 1553 1553 1554 1555 1555 1556 1556 1557 1559 1560 1567 1564 1566 1564 1564 1566 1568 1569 1571 1575 1574 1577 1581 1584 1586
1554 1554 1553 1552 1552 1552 1552 1552 1552 1552 1552 1552 1552 1552 1552 1552 1558 1554 1553 1553 1552 1553 1554 1555 1555 1556 1556 1558 1559 1564 1565 1564 1566 1566 1565 1567 1568 1569 1570 1571 1571 1576 1579 1582 1585
1553 1553 1553 1552 1552 1551 1551 1552 1552 1552 1552 1551 1551 1551 1552 1553 1554 1553 1553 1552 1552 1553 1554 1554 1554 1554 1556 1558 1559 1563 1565 1566 1566 1566 1567 1568 1569 1569 1570 1570 1572 1576 1579 1581 1584
1553 1553 1553 1552 1551 1550 1550 1550 1551 1551 1551 1551 1551 1551 1552 1553 1554 1553 1553 1552 1552 1553 1553 1554 1554 1554 1555 1558 1560 1563 1565 1567 1567 1567 1568 1568 1569 1569 1573 1572 1574 1576 1578 1581 1582
1553 1552 1552 1551 1550 1549 1549 1549 1549 1549 1550 1550 1550 1550 1551 1553 1553 1553 1553 1553 1552 1552 1553 1553 1554 1554 1556 1559 1561 1563 1567 1567 1567 1567 1568 1568 1571 1567 1569 1571 1573 1576 1578 1580 1581
1552 1551 1551 1551 1550 1549 1548 1548 1548 1549 1550 1550 1550 1550 1551 1553 1553 1554 1554 1553 1553 1553 1553 1553 1554 1555 1557 1560 1562 1564 1566 1573 1564 1566 1568 1569 1571 1564 1567 1568 1571 1574 1576 1578 1579
1551 1551 1550 1549 1549 1548 1548 1547 1548 1548 1548 1549 1551 1552 1553 1553 1554 1554 1554 1554 1554 1554 1554 1553 1554 1555 1559 1562 1569 1567 1575 1568 1568 1564 1566 1569 1567 1564 1566 1566 1568 1571 1573 1575 1576
1550 1550 1549 1548 1547 1547 1547 1547 1547 1548 1548 1549 1551 1554 1553 1552 1552 1552 1553 1553 1554 1554 1555 1554 1555 1558 1561 1567 1579 1568 1567 1562 1566 1563 1563 1566 1565 1562 1563 1563 1563 1566 1569 1571 1572
1548 1547 1547 1546 1546 1546 1546 1547 1550 1550 1548 1549 1550 1551 1550 1552 1552 1552 1553 1553 1553 1553 1554 1553 1561 1565 1560 1557 1557 1557 1559 1564 1562 1559 1562 1562 1560 1555 1557 1560 1561 1562 1564 1565 1566
1546 1547 1546 1546 1546 1546 1546 1547 1548 1551 1549 1549 1549 1549 1550 1551 1552 1553 1554 1555 1554 1555 1551 1557 1561 1557 1555 1555 1556 1556 1559 1562 1560 1559 1562 1558 1554 1547 1548 1549 1551 1554 1557 1559 1563
1545 1545 1545 1545 1546 1547 1547 1548 1548 1548 1549 1549 1548 1548 1549 1551 1552 1552 1554 1554 1553 1555 1553 1558 1557 1555 1554 1555 1556 1558 1560 1561 1562 1559 1557 1558 1555 1542 1542 1545 1548 1550 1552 1555 1557
1543 1544 1545 1545 1548 1546 1548 1549 1549 1548 1556 1551 1548 1549 1549 1550 1551 1552 1552 1555 1553 1554 1553 1559 1558 1557 1557 1557 1557 1562 1559 1558 1560 1567 1572 1559 1575 1546 1540 1543 1543 1544 1546 1549 1551
1541 1543 1544 1544 1546 1547 1549 1548 1549 1550 1570 1549 1549 1549 1549 1552 1552 1551 1551 1552 1554 1554 1557 1560 1558 1558 1560 1561 1560 1562 1559 1559 1560 1566 1568 1563 1577 1550 1541 1543 1538 1537 1538 1542 1546
1539 1540 1542 1544 1545 1546 1547 1548 1549 1560 1565 1549 1547 1548 1551 1551 1551 1552 1553 1554 1553 1553 1553 1557 1558 1559 1561 1560 1560 1561 1563 1563 1564 1572 1580 1559 1564 1553 1545 1532 1527 1528 1531 1534 1539
1537 1539 1541 1542 1544 1545 1547 1548 1560 1570 1544 1552 1549 1548 1549 1550 1551 1551 1553 1556 1559 1563 1565 1561 1561 1560 1560 1562 1562 1562 1569 1583 1573 1580 1572 1552 1561 1541 1525 1521 1519 1519 1523 1528 1533
1534 1537 1539 1541 1543 1544 1546 1550 1561 1542 1544 1541 1543 1546 1551 1546 1547 1549 1552 1558 1551 1553 1563 1569 1569 1564 1561 1562 1563 1563 1568 1583 1569 1579 1569 1555 1561 1531 1519 1518 1516 1516 1519 1525 1528
1533 1535 1537 1540 1542 1544 1547 1561 1554 1540 1537 1540 1542 1549 1550 1543 1545 1548 1552 1553 1547 1548 1562 1562 1563 1562 1562 1563 1564 1562 1570 1563 1569 1569 1574 1560 1536 1522 1519 1519 1519 1518 1519 1519 1522
1532 1535 1537 1539 1540 1543 1547 1552 1540 1535 1535 1537 1547 1544 1551 1549 1549 1552 1549 1543 1545 1545 1546 1551 1562 1561 1562 1562 1562 1563 1564 1570 1576 1577 1568 1558 1543 1534 1523 1520 1519 1518 1516 1517 1517
1532 1534 1535 1538 1540 1542 1551 1547 1535 1533 1533 1537 1540 1541 1538 1544 1548 1548 1543 1544 1542 1545 1545 1548 1556 1565 1563 1564 1561 1566 1566 1566 1569 1575 1582 1577 1550 1519 1514 1511 1514 1513 1513 1513 1514
1529 1533 1534 1536 1541 1539 1542 1535 1533 1534 1534 1535 1536 1537 1537 1537 1542 1540 1540 1543 1543 1544 1549 1547 1556 1564 1561 1557 1555 1553 1554 1559 1587 1566 1576 1588 1557 1512 1509 1507 1507 1506 1506 1507 1509
1527 1530 1532 1533 1541 1540 1533 1531 1533 1534 1535 1536 1535 1534 1532 1535 1541 1537 1541 1542 1542 1543 1546 1547 1557 1568 1562 1560 1557 1558 1553 1550 1559 1572 1571 1585 1551 1510 1509 1508 1508 1508 1506 1505 1503
1527 1529 1531 1532 1529 1531 1534 1532 1532 1531 1532 1533 1533 1532 1534 1536 1534 1535 1539 1541 1542 1544 1546 1546 1552 1555 1563 1549 1546 1551 1549 1551 1553 1582 1567 1558 1534 1511 1510 1510 1506 1505 1502 1500 1498
1524 1522 1520 1531 1529 1527 1528 1528 1528 1530 1530 1530 1530 1532 1534 1539 1536 1536 1536 1539 1540 1540 1544 1547 1554 1546 1543 1540 1540 1539 1541 1546 1553 1542 1546 1520 1532 1509 1509 1507 1503 1501 1498 1495 1492
1518 1518 1520 1520 1520 1521 1527 1526 1524 1525 1528 1529 1530 1528 1530 1536 1534 1533 1534 1539 1536 1542 1543 1544 1548 1540 1541 1536 1537 1536 1534 1535 1536 1531 1534 1526 1523 1505 1502 1501 1499 1496 1493 1489 1486
1513 1513 1514 1515 1517 1520 1518 1517 1518 1520 1520 1520 1523 1525 1527 1526 1527 1527 1527 1528 1528 1532 1539 1543 1547 1549 1551 1537 1537 1538 1525 1522 1519 1518 1516 1524 1500 1498 1499 1499 1496 1492 1489 1485 1484
Wind_Speed
6 5 4 3 3 3 4 3 3 3 3 2 2 3 4 3 6 3 4 7 6 2 3 4 6 4 1 3 7 3 4 3 5 3 4 7 4 7 7 13 8 4 12 10 17
6 5 4 3 2 2 2 3 2 2 2 2 1 2 3 2 5 4 4 7 5 1 5 3 1 2 2 3 4 5 4 1 4 3 5 9 6 11 6 14 12 18 20 18 12
7 6 5 3 2 1 1 1 2 2 2 1 1 2 2 4 5 2 6 6 2 3 5 1 3 0 1 4 5 4 2 4 4 7 11 6 9 5 12 4 12 17 19 16 13
6 6 5 4 3 2 2 2 2 2 1 1 1 2 2 3 4 3 5 4 1 4 7 2 3 5 2 4 2 5 8 5 2 4 5 5 8 5 5 0 11 11 16 17 14
5 5 5 4 4 3 3 2 2 2 2 1 0 1 1 3 2 4 4 1 3 5 4 3 5 7 3 5 3 4 3 5 4 4 7 8 6 5 7 7 16 14 15 16 16
5 5 5 5 5 4 3 3 2 1 0 0 1 1 2 2 2 5 3 2 3 6 2 2 4 5 8 5 4 6 8 8 5 3 3 1 3 4 8 18 19 15 15 16 17
5 5 5 5 5 5 4 3 2 1 1 1 1 1 2 5 2 4 6 5 4 6 5 4 3 2 4 4 8 13 4 2 7 6 2 1 1 5 18 20 20 17 16 16 13
6 6 6 6 6 6 4 2 2 1 1 1 2 1 3 2 3 4 3 7 6 3 3 4 4 5 3 10 4 3 4 1 3 9 3 4 7 5 24 23 20 18 17 18 17
6 6 6 6 6 6 4 1 1 0 1 3 3 3 1 2 2 2 5 1 6 6 5 5 4 4 6 4 3 2 3 4 2 13 4 4 5 8 22 23 22 21 22 22 19
6 6 6 6 5 4 2 0 1 2 3 3 3 2 3 3 3 2 4 4 2 3 3 1 2 3 3 4 2 2 3 3 4 6 6 4 8 9 25 26 26 25 24 26 24
5 5 5 4 3 2 1 1 2 1 3 2 3 6 8 4 4 2 2 2 2 3 2 4 5 1 2 3 2 2 2 3 1 3 3 7 8 9 28 27 25 26 27 28 28
7 5 5 3 2 3 3 2 2 1 2 5 5 6 5 5 2 3 2 1 3 3 3 3 2 3 2 2 1 1 3 4 1 4 4 6 10 10 22 29 34 30 29 29 27
7 5 4 2 4 2 2 2 1 1 1 2 6 5 5 6 1 6 3 0 2 4 4 4 4 1 0 2 2 2 1 1 2 2 3 6 8 3 8 13 29 29 27 28 28
7 4 3 2 4 4 1 2 1 0 4 2 3 2 6 4 1 4 4 1 2 2 2 3 2 1 1 1 1 2 1 2 3 4 2 3 5 5 5 8 15 30 29 28 29
7 5 2 4 5 2 1 3 1 0 2 3 3 4 4 4 4 0 3 3 1 2 4 2 2 1 1 1 3 3 2 1 1 0 3 2 3 7 3 7 10 26 33 31 29
8 7 4 3 4 3 1 1 1 4 3 2 4 4 3 4 4 3 2 1 1 1 2 2 1 2 1 1 1 1 3 2 3 2 2 4 5 6 5 8 5 15 34 33 30
9 8 7 5 6 3 2 2 4 3 2 3 3 4 4 5 4 5 3 2 3 2 2 1 0 1 1 1 3 3 4 3 2 3 5 1 2 9 7 6 8 16 30 32 30
9 9 8 6 5 2 5 4 2 3 3 4 4 5 4 5 5 6 1 2 6 2 1 4 4 0 1 1 2 2 4 4 3 2 4 4 6 5 1 3 3 10 20 26 29
8 8 8 7 5 6 4 3 6 1 4 6 3 3 3 2 3 3 7 4 2 7 6 2 1 0 2 2 2 1 1 3 1 2 2 4 6 5 1 2 3 9 19 26 30
10 8 5 5 4 8 4 5 3 2 1 4 5 6 6 5 4 6 6 1 4 3 3 2 1 3 1 1 1 2 2 1 2 1 4 5 6 5 5 10 7 10 19 25 28
12 5 9 9 7 6 4 6 2 5 4 3 1 3 3 6 7 3 3 1 2 2 3 2 4 1 2 4 6 1 2 2 2 4 4 2 6 5 5 7 10 19 25 25 27
11 2 8 13 4 4 3 5 2 4 1 1 3 4 2 1 6 3 2 1 3 6 5 3 4 3 6 2 2 3 5 6 4 3 2 4 6 5 3 5 13 18 22 23 25
11 4 7 17 3 3 5 3 4 2 4 5 4 5 1 1 1 3 4 1 3 3 4 3 2 1 4 2 3 4 4 4 4 3 5 5 6 3 4 6 7 11 12 21 26
6 2 4 13 6 3 4 5 5 8 4 4 3 3 2 3 3 3 4 3 3 2 1 1 3 6 6 5 4 4 5 5 5 4 4 7 8 14 8 8 15 25 25 22 27
8 5 8 3 5 6 1 2 0 6 7 4 3 6 5 4 3 5 3 3 3 6 3 4 4 3 5 6 5 6 6 9 9 8 8 17 8 16 6 8 23 15 22 24 20
9 5 5 3 4 10 8 5 6 4 8 5 5 3 5 7 8 3 5 3 5 2 6 3 4 2 4 7 8 10 10 10 14 11 9 13 20 17 31 16 15 21 23 22 21
15 10 5 5 5 5 5 8 7 7 8 13 13 6 7 7 3 6 5 6 9 10 8 7 5 3 5 6 4 10 10 12 9 7 8 8 17 9 7 12 15 20 20 15 11
Wind_Direction
49 56 64 66 67 62 62 49 66 87 90 95 53 24 13 59 127 90 34 356 345 1 132 124 91 53 319 3 16 347 52 23 353 16 137 133 99 62 96 95 70 82 156 160 164
44 46 49 38 39 47 52 53 52 50 81 102 68 16 13 101 136 65 360 357 1 96 128 101 285 217 115 31 18 49 79 89 358 356 158 136 130 136 120 116 92 99 127 147 145
34 31 28 28 18 359 349 25 37 50 31 49 68 19 47 124 120 7 348 2 28 134 131 322 319 270 315 69 17 32 88 152 13 18 135 113 125 145 156 192 184 168 157 150 137
24 25 18 10 356 328 312 313 341 7 39 32 11 14 104 113 142 6 357 4 96 136 119 86 250 253 153 110 90 93 46 86 103 45 104 113 136 121 94 113 182 160 156 150 154
7 12 10 1 350 333 309 291 311 337 357 350 344 24 112 98 116 350 6 49 126 138 127 332 305 297 93 95 72 92 123 72 111 83 102 125 79 156 114 132 157 153 156 157 171
353 353 355 352 346 334 316 290 267 278 331 278 312 17 100 109 92 3 2 40 104 117 154 128 76 69 95 75 81 122 120 132 145 125 137 110 182 153 152 149 156 166 166 170 184
341 342 345 342 335 328 317 291 257 264 246 211 169 75 104 137 165 52 46 56 129 151 173 185 147 134 108 99 119 139 102 161 182 186 179 208 231 230 169 170 165 174 178 184 203
332 338 340 340 334 328 319 292 248 254 244 181 165 132 105 150 128 137 49 36 72 114 118 138 126 120 92 125 114 168 126 228 216 175 188 130 275 194 170 175 179 188 192 195 201
329 334 337 340 333 332 325 306 200 192 150 148 117 49 25 154 183 138 153 84 63 69 92 114 117 96 129 102 28 311 259 192 205 190 144 176 266 176 178 185 189 197 200 201 208
323 331 331 340 336 343 338 54 154 160 148 152 180 127 181 181 185 209 171 165 134 8 349 157 117 69 26 81 222 264 299 315 188 224 182 198 255 195 193 194 202 202 206 206 214
286 318 323 336 347 18 107 43 46 100 199 75 104 106 158 176 154 169 140 148 165 224 194 206 70 181 203 165 182 223 260 302 162 203 191 233 250 226 203 202 209 211 210 212 218
274 308 328 344 55 107 111 68 59 133 327 217 209 136 165 150 151 226 198 171 206 251 239 29 166 206 177 189 59 318 306 321 115 198 183 279 265 246 183 204 207 211 212 215 215
256 281 319 351 128 101 46 54 109 185 228 163 199 202 198 199 332 176 197 244 248 307 304 167 199 186 132 324 310 38 244 115 234 284 259 355 299 239 197 205 214 217 218 218 216
246 256 309 152 127 135 145 8 320 268 70 252 205 191 190 165 215 189 201 260 288 232 21 73 295 349 339 314 39 287 18 32 356 40 268 114 288 296 196 199 207 215 216 219 215
228 228 260 167 141 99 307 347 352 153 26 169 146 156 162 158 141 7 192 174 237 346 72 246 179 247 302 2 343 244 29 4 346 353 19 268 89 267 96 236 221 216 216 217 218
222 208 201 182 173 225 330 302 124 45 265 122 138 169 132 213 190 122 106 197 253 57 127 141 67 46 119 113 68 27 345 3 15 81 6 232 141 276 193 214 237 209 218 215 215
215 204 197 186 196 183 171 126 49 127 149 179 195 158 210 190 191 163 171 197 165 83 251 29 40 73 92 32 349 57 65 342 351 3 221 354 99 247 243 257 221 206 215 214 212
202 199 202 197 211 178 161 64 133 269 149 169 129 178 189 150 211 187 170 246 237 176 157 178 311 207 344 151 171 227 138 152 275 252 272 360 237 253 298 108 138 203 205 205 209
187 189 196 191 194 177 165 88 206 230 142 135 88 163 242 163 117 139 203 216 211 165 176 33 327 254 46 356 100 302 187 179 167 337 27 242 274 292 256 295 146 166 191 202 208
158 157 170 178 176 165 89 228 221 126 106 113 169 168 203 201 153 170 193 215 152 100 144 205 137 214 260 20 277 219 275 97 9 219 262 287 282 245 250 244 229 223 209 211 212
154 162 188 183 171 159 164 231 303 133 144 154 155 264 209 178 179 202 225 323 98 123 101 145 118 216 67 205 191 142 266 259 137 156 182 289 276 223 246 239 214 229 231 226 223
154 124 176 182 152 193 189 200 265 166 135 99 140 206 228 22 201 217 198 305 116 145 159 204 148 205 227 262 281 233 200 154 119 263 223 149 276 251 256 214 211 236 241 242 238
153 163 169 180 167 242 274 231 217 178 188 177 229 212 39 200 212 232 110 196 172 152 173 176 231 19 318 328 321 249 220 185 131 85 227 145 261 296 289 311 290 289 279 256 247
173 130 156 198 214 168 195 254 225 203 232 234 250 253 260 251 209 212 149 179 182 101 145 163 210 180 194 205 157 192 209 203 147 131 214 227 269 277 284 297 305 308 296 283 251
190 222 181 203 255 197 208 243 37 184 212 190 257 213 200 233 235 245 151 146 173 191 170 146 222 234 246 247 206 223 194 194 197 211 190 266 223 261 274 275 302 306 310 307 284
182 182 191 189 182 173 186 233 204 233 173 226 199 236 220 209 203 255 184 180 202 146 164 182 252 265 273 266 259 261 232 216 219 238 256 265 278 278 274 282 305 321 316 303 295
201 197 181 212 178 135 208 197 199 187 248 230 213 206 249 243 270 225 217 167 212 161 184 159 170 133 256 239 291 289 217 213 220 201 197 214 249 253 272 304 327 328 327 301 304